Time,TemperatureF,DewpointF,PressureIn,WindDirection,WindDirectionDegrees,WindSpeedMPH,WindSpeedGustMPH,Humidity,HourlyPrecipIn,Conditions,Clouds,dailyrainin,SolarRadiationWatts/m^2,SoftwareType,DateUTC
2013-06-04 00:03:00,58.7,45.3,30.06,ESE,109,0.1,1.0,61,0.00,BKN,,0.00,0.0,WeatherDisplay:10.37,2013-06-04 05:03:00,
2013-06-04 00:08:00,58.5,45.1,30.06,East,87,1.7,4.0,61,0.00,BKN,,0.00,0.0,WeatherDisplay:10.37,2013-06-04 05:08:00,
2013-06-04 00:13:00,58.3,45.3,30.06,SSE,166,0.1,3.5,62,0.00,BKN,,0.00,0.0,WeatherDisplay:10.37,2013-06-04 05:13:00,
2013-06-04 00:18:00,58.1,45.1,30.05,SSE,153,2.0,8.1,62,0.00,BKN,,0.00,0.0,WeatherDisplay:10.37,2013-06-04 05:18:00,
2013-06-04 00:23:00,58.0,45.0,30.04,SW,236,0.2,2.0,62,0.00,BKN,,0.00,0.0,WeatherDisplay:10.37,2013-06-04 05:23:00,
2013-06-04 00:28:00,58.0,45.0,30.04,WNW,296,0.7,2.0,62,0.00,BKN,,0.00,0.0,WeatherDisplay:10.37,2013-06-04 05:28:00,
2013-06-04 00:33:00,57.8,44.9,30.03,East,85,1.1,3.5,62,0.00,BKN,,0.00,0.0,WeatherDisplay:10.37,2013-06-04 05:33:00,
2013-06-04 00:38:00,57.6,45.1,30.03,East,86,0.2,1.2,63,0.00,BKN,,0.00,0.0,WeatherDisplay:10.37,2013-06-04 05:38:00,
2013-06-04 00:43:00,57.6,45.1,30.03,ENE,75,1.1,3.5,63,0.00,BKN,,0.00,0.0,WeatherDisplay:10.37,2013-06-04 05:43:00,
2013-06-04 00:48:00,57.5,44.6,30.02,SSW,193,0.9,6.9,62,0.00,BKN,,0.00,0.0,WeatherDisplay:10.37,2013-06-04 05:48:00,
2013-06-04 00:53:00,57.5,44.6,30.03,ENE,59,1.6,4.0,62,0.00,BKN,,0.00,0.0,WeatherDisplay:10.37,2013-06-04 05:53:00,
2013-06-04 00:58:00,57.3,44.8,30.03,East,96,1.8,5.0,63,0.00,BKN,,0.00,0.0,WeatherDisplay:10.37,2013-06-04 05:58:00,
2013-06-04 01:03:00,57.2,44.7,30.03,NNE,28,2.0,3.5,63,0.00,SCT,,0.00,0.0,WeatherDisplay:10.37,2013-06-04 06:03:00,
2013-06-04 01:08:00,57.2,44.7,30.04,NE,37,1.3,3.5,63,0.00,SCT,,0.00,0.0,WeatherDisplay:10.37,2013-06-04 06:08:00,
2013-06-04 01:13:00,57.2,45.1,30.04,NE,50,1.3,3.5,64,0.00,SCT,,0.00,0.0,WeatherDisplay:10.37,2013-06-04 06:13:00,
2013-06-04 01:18:00,57.1,45.4,30.04,NE,44,1.4,4.0,65,0.00,SCT,,0.00,0.0,WeatherDisplay:10.37,2013-06-04 06:18:00,
2013-06-04 01:23:00,56.8,44.7,30.05,NE,34,1.2,3.0,64,0.00,SCT,,0.00,0.0,WeatherDisplay:10.37,2013-06-04 06:23:00,
2013-06-04 01:28:00,56.7,45.1,30.05,NE,55,0.4,1.2,65,0.00,SCT,,0.00,0.0,WeatherDisplay:10.37,2013-06-04 06:28:00,
2013-06-04 01:33:00,56.6,45.0,30.05,NNE,15,0.7,2.3,65,0.00,SCT,,0.00,0.0,WeatherDisplay:10.37,2013-06-04 06:33:00,
2013-06-04 01:38:00,56.5,44.9,30.06,NNW,330,1.0,3.5,65,0.00,SCT,,0.00,0.0,WeatherDisplay:10.37,2013-06-04 06:38:00,
2013-06-04 01:43:00,56.4,44.8,30.06,South,185,0.9,3.5,65,0.00,SCT,,0.00,0.0,WeatherDisplay:10.37,2013-06-04 06:43:00,
2013-06-04 01:48:00,56.3,45.1,30.06,ESE,117,0.1,1.0,66,0.00,SCT,,0.00,0.0,WeatherDisplay:10.37,2013-06-04 06:48:00,
2013-06-04 01:53:00,56.3,45.1,30.07,WSW,240,0.1,2.3,66,0.00,SCT,,0.00,0.0,WeatherDisplay:10.37,2013-06-04 06:53:00,
2013-06-04 01:58:00,56.4,45.6,30.07,WSW,239,0.0,0.0,67,0.00,SCT,,0.00,0.0,WeatherDisplay:10.37,2013-06-04 06:58:00,
2013-06-04 02:03:00,56.1,45.3,30.07,SSE,161,0.0,0.0,67,0.00,BKN,,0.00,0.0,WeatherDisplay:10.37,2013-06-04 07:03:00,
2013-06-04 02:08:00,55.9,45.5,30.07,SSE,162,0.2,1.2,68,0.00,BKN,,0.00,0.0,WeatherDisplay:10.37,2013-06-04 07:08:00,
2013-06-04 02:13:00,56.1,45.3,30.08,SSW,192,0.0,0.0,67,0.00,BKN,,0.00,0.0,WeatherDisplay:10.37,2013-06-04 07:13:00,
2013-06-04 02:18:00,56.2,46.2,30.08,SSW,192,0.0,0.0,69,0.00,BKN,,0.00,0.0,WeatherDisplay:10.37,2013-06-04 07:18:00,
2013-06-04 02:23:00,55.7,45.7,30.08,SSW,192,0.2,1.0,69,0.00,BKN,,0.00,0.0,WeatherDisplay:10.37,2013-06-04 07:23:00,
2013-06-04 02:28:00,55.9,45.5,30.09,SSW,203,0.1,1.2,68,0.00,BKN,,0.00,0.0,WeatherDisplay:10.37,2013-06-04 07:28:00,
2013-06-04 02:33:00,56.2,45.8,30.11,SSW,205,0.4,2.3,68,0.00,BKN,,0.00,0.0,WeatherDisplay:10.37,2013-06-04 07:33:00,
2013-06-04 02:38:00,56.4,46.0,30.12,SSW,206,0.0,0.0,68,0.00,BKN,,0.00,0.0,WeatherDisplay:10.37,2013-06-04 07:38:00,
2013-06-04 02:43:00,56.4,46.0,30.12,SSW,213,0.1,1.0,68,0.00,BKN,,0.00,0.0,WeatherDisplay:10.37,2013-06-04 07:43:00,
2013-06-04 02:48:00,56.4,46.0,30.12,SSW,213,0.0,1.2,68,0.00,BKN,,0.00,0.0,WeatherDisplay:10.37,2013-06-04 07:48:00,
2013-06-04 02:53:00,56.1,46.1,30.12,SSW,213,0.0,0.0,69,0.00,BKN,,0.00,0.0,WeatherDisplay:10.37,2013-06-04 07:53:00,
2013-06-04 02:58:00,56.0,46.4,30.12,SSW,213,0.0,0.0,70,0.00,BKN,,0.00,0.0,WeatherDisplay:10.37,2013-06-04 07:58:00,
2013-06-04 03:03:00,55.9,46.3,30.12,SSW,213,0.0,0.0,70,0.00,FEW,,0.00,0.0,WeatherDisplay:10.37,2013-06-04 08:03:00,
2013-06-04 03:08:00,55.7,46.4,30.12,SSW,213,0.0,0.0,71,0.00,FEW,,0.00,0.0,WeatherDisplay:10.37,2013-06-04 08:08:00,
2013-06-04 03:13:00,55.6,46.7,30.11,SSW,213,0.0,0.0,72,0.00,FEW,,0.00,0.0,WeatherDisplay:10.37,2013-06-04 08:13:00,
2013-06-04 03:18:00,55.3,46.8,30.11,SSW,213,0.0,1.0,73,0.00,FEW,,0.00,0.0,WeatherDisplay:10.37,2013-06-04 08:18:00,
2013-06-04 03:23:00,55.2,47.4,30.10,SSE,163,1.0,2.0,75,0.00,FEW,,0.00,0.0,WeatherDisplay:10.37,2013-06-04 08:23:00,
2013-06-04 03:28:00,55.2,47.1,30.09,SSE,160,1.4,3.5,74,0.00,FEW,,0.00,0.0,WeatherDisplay:10.37,2013-06-04 08:28:00,
2013-06-04 03:33:00,55.4,46.9,30.07,South,183,2.2,4.0,73,0.00,FEW,,0.00,0.0,WeatherDisplay:10.37,2013-06-04 08:33:00,
2013-06-04 03:38:00,55.9,47.0,30.05,SW,220,3.5,10.0,72,0.00,FEW,,0.00,0.0,WeatherDisplay:10.37,2013-06-04 08:38:00,
2013-06-04 03:43:00,56.0,47.1,30.04,SSW,196,3.0,5.8,72,0.00,FEW,,0.00,0.0,WeatherDisplay:10.37,2013-06-04 08:43:00,
2013-06-04 03:48:00,55.9,47.0,30.04,SW,215,3.5,6.0,72,0.00,FEW,,0.00,0.0,WeatherDisplay:10.37,2013-06-04 08:48:00,
2013-06-04 03:53:00,56.0,46.4,30.04,SE,125,4.2,9.2,70,0.00,FEW,,0.00,0.0,WeatherDisplay:10.37,2013-06-04 08:53:00,
2013-06-04 03:58:00,56.2,46.2,30.03,SSE,154,5.0,8.1,69,0.00,FEW,,0.00,0.0,WeatherDisplay:10.37,2013-06-04 08:58:00,
2013-06-04 04:03:00,56.5,46.1,30.02,SE,145,3.4,8.0,68,0.00,BKN,,0.00,0.0,WeatherDisplay:10.37,2013-06-04 09:03:00,
2013-06-04 04:08:00,56.6,46.2,30.04,SSW,201,4.6,8.1,68,0.00,BKN,,0.00,0.0,WeatherDisplay:10.37,2013-06-04 09:08:00,
2013-06-04 04:13:00,56.6,46.2,30.05,SSW,207,4.5,7.0,68,0.00,BKN,,0.00,0.0,WeatherDisplay:10.37,2013-06-04 09:13:00,
2013-06-04 04:18:00,56.6,45.4,30.05,ESE,110,3.9,6.9,66,0.00,BKN,,0.00,0.0,WeatherDisplay:10.37,2013-06-04 09:18:00,
2013-06-04 04:23:00,56.7,45.5,30.04,SE,134,4.1,8.1,66,0.00,BKN,,0.00,0.0,WeatherDisplay:10.37,2013-06-04 09:23:00,
2013-06-04 04:28:00,56.6,45.4,30.05,South,172,4.4,8.1,66,0.00,BKN,,0.00,0.0,WeatherDisplay:10.37,2013-06-04 09:28:00,
2013-06-04 04:33:00,56.6,46.5,30.05,SSE,156,4.4,9.0,69,0.00,BKN,,0.00,0.0,WeatherDisplay:10.37,2013-06-04 09:33:00,
2013-06-04 04:38:00,56.1,46.4,30.05,SSE,165,3.6,6.0,70,0.00,BKN,,0.00,0.0,WeatherDisplay:10.37,2013-06-04 09:38:00,
2013-06-04 04:43:00,55.9,46.3,30.06,SSW,194,3.4,6.0,70,0.00,BKN,,0.00,0.0,WeatherDisplay:10.37,2013-06-04 09:43:00,
2013-06-04 04:48:00,55.8,46.5,30.05,South,171,2.3,4.6,71,0.00,BKN,,0.00,0.0,WeatherDisplay:10.37,2013-06-04 09:48:00,
2013-06-04 04:53:00,55.7,46.4,30.05,South,171,3.3,7.0,71,0.00,BKN,,0.00,0.0,WeatherDisplay:10.37,2013-06-04 09:53:00,
2013-06-04 04:58:00,55.8,46.9,30.05,South,191,1.7,3.5,72,0.00,BKN,,0.00,0.0,WeatherDisplay:10.37,2013-06-04 09:58:00,
2013-06-04 05:03:00,55.6,46.7,30.04,South,175,1.6,4.0,72,0.00,SCT,,0.00,0.0,WeatherDisplay:10.37,2013-06-04 10:03:00,
2013-06-04 05:08:00,55.5,46.6,30.04,SSE,167,1.7,3.5,72,0.00,SCT,,0.00,0.0,WeatherDisplay:10.37,2013-06-04 10:08:00,
2013-06-04 05:13:00,54.9,47.8,30.04,SSE,160,1.9,5.0,77,0.00,SCT,,0.00,0.0,WeatherDisplay:10.37,2013-06-04 10:13:00,
2013-06-04 05:18:00,54.4,47.7,30.03,South,171,1.5,5.0,78,0.01,RA,,0.01,0.0,WeatherDisplay:10.37,2013-06-04 10:18:00,
2013-06-04 05:23:00,54.0,48.0,30.03,SSW,196,1.0,3.0,80,0.01,RA,,0.01,0.0,WeatherDisplay:10.37,2013-06-04 10:23:00,
2013-06-04 05:28:00,53.7,47.7,30.02,SSE,167,1.1,3.0,80,0.01,SCT,,0.01,0.0,WeatherDisplay:10.37,2013-06-04 10:28:00,
2013-06-04 05:33:00,53.8,47.4,30.02,SSW,199,1.1,2.3,79,0.01,SCT,,0.01,0.0,WeatherDisplay:10.37,2013-06-04 10:33:00,
2013-06-04 05:38:00,53.7,48.0,30.02,South,170,0.9,3.5,81,0.01,SCT,,0.01,0.0,WeatherDisplay:10.37,2013-06-04 10:38:00,
2013-06-04 05:43:00,53.7,47.7,30.01,ENE,61,2.0,4.6,80,0.01,SCT,,0.01,0.0,WeatherDisplay:10.37,2013-06-04 10:43:00,
2013-06-04 05:48:00,54.0,47.3,30.02,South,176,1.6,4.0,78,0.01,SCT,,0.01,0.0,WeatherDisplay:10.37,2013-06-04 10:48:00,
2013-06-04 05:53:00,54.3,46.9,30.02,ESE,123,0.4,3.5,76,0.01,SCT,,0.01,0.0,WeatherDisplay:10.37,2013-06-04 10:53:00,
2013-06-04 05:58:00,54.3,46.5,30.02,South,190,0.5,2.3,75,0.01,SCT,,0.01,0.0,WeatherDisplay:10.37,2013-06-04 10:58:00,
2013-06-04 06:03:00,54.5,46.7,30.01,NE,34,2.6,6.0,75,0.01,BKN,,0.01,5.0,WeatherDisplay:10.37,2013-06-04 11:03:00,
2013-06-04 06:08:00,54.7,46.6,30.02,SW,215,0.1,1.2,74,0.01,BKN,,0.01,5.0,WeatherDisplay:10.37,2013-06-04 11:08:00,
2013-06-04 06:13:00,54.8,46.7,30.02,SW,215,0.0,0.0,74,0.01,BKN,,0.01,7.0,WeatherDisplay:10.37,2013-06-04 11:13:00,
2013-06-04 06:18:00,54.9,46.8,30.02,East,84,0.6,3.5,74,0.00,BKN,,0.01,11.0,WeatherDisplay:10.37,2013-06-04 11:18:00,
2013-06-04 06:23:00,54.8,46.7,30.02,NW,318,0.2,2.0,74,0.00,BKN,,0.01,12.0,WeatherDisplay:10.37,2013-06-04 11:23:00,
2013-06-04 06:28:00,54.8,46.7,30.03,SSE,161,1.9,3.5,74,0.00,BKN,,0.01,12.0,WeatherDisplay:10.37,2013-06-04 11:28:00,
2013-06-04 06:33:00,54.8,47.0,30.03,SW,232,1.5,4.0,75,0.00,BKN,,0.01,11.0,WeatherDisplay:10.37,2013-06-04 11:33:00,
2013-06-04 06:38:00,54.7,46.6,30.03,South,174,0.9,3.5,74,0.00,BKN,,0.01,12.0,WeatherDisplay:10.37,2013-06-04 11:38:00,
2013-06-04 06:43:00,54.8,46.7,30.04,SSE,163,0.6,2.3,74,0.00,BKN,,0.01,14.0,WeatherDisplay:10.37,2013-06-04 11:43:00,
2013-06-04 06:48:00,54.9,46.0,30.04,South,182,0.4,2.0,72,0.00,BKN,,0.01,19.0,WeatherDisplay:10.37,2013-06-04 11:48:00,
2013-06-04 06:53:00,55.0,46.5,30.04,SSW,207,0.5,2.3,73,0.00,BKN,,0.01,28.0,WeatherDisplay:10.37,2013-06-04 11:53:00,
2013-06-04 06:58:00,55.1,46.2,30.04,South,171,0.8,2.0,72,0.00,BKN,,0.01,37.0,WeatherDisplay:10.37,2013-06-04 11:58:00,
2013-06-04 07:03:00,55.3,46.4,30.04,NW,316,0.4,2.3,72,0.00,BKN,,0.01,37.0,WeatherDisplay:10.37,2013-06-04 12:03:00,
2013-06-04 07:08:00,55.3,46.1,30.05,NE,49,1.5,4.0,71,0.00,BKN,,0.01,33.0,WeatherDisplay:10.37,2013-06-04 12:08:00,
2013-06-04 07:13:00,55.4,46.5,30.05,ENE,75,0.6,3.5,72,0.00,BKN,,0.01,28.0,WeatherDisplay:10.37,2013-06-04 12:13:00,
2013-06-04 07:18:00,55.4,46.5,30.05,NW,306,0.4,2.3,72,0.00,BKN,,0.01,23.0,WeatherDisplay:10.37,2013-06-04 12:18:00,
2013-06-04 07:23:00,55.3,46.4,30.06,South,188,0.8,3.5,72,0.00,BKN,,0.01,16.0,WeatherDisplay:10.37,2013-06-04 12:23:00,
2013-06-04 07:28:00,55.2,46.7,30.06,ESE,113,1.0,3.5,73,0.00,BKN,,0.01,12.0,WeatherDisplay:10.37,2013-06-04 12:28:00,
2013-06-04 07:33:00,55.1,46.6,30.06,East,81,1.1,3.5,73,0.00,BKN,,0.01,12.0,WeatherDisplay:10.37,2013-06-04 12:33:00,
2013-06-04 07:38:00,55.0,46.9,30.06,ESE,120,0.0,2.3,74,0.00,BKN,,0.01,16.0,WeatherDisplay:10.37,2013-06-04 12:38:00,
2013-06-04 07:43:00,55.0,46.5,30.06,South,189,1.0,2.3,73,0.00,BKN,,0.01,19.0,WeatherDisplay:10.37,2013-06-04 12:43:00,
2013-06-04 07:48:00,55.1,46.6,30.06,SSE,151,0.1,1.2,73,0.00,BKN,,0.01,18.0,WeatherDisplay:10.37,2013-06-04 12:48:00,
2013-06-04 07:53:00,55.2,46.7,30.06,ENE,65,0.3,3.5,73,0.00,BKN,,0.01,18.0,WeatherDisplay:10.37,2013-06-04 12:53:00,
2013-06-04 07:58:00,55.3,47.2,30.06,SSW,198,0.4,1.2,74,0.00,BKN,,0.01,16.0,WeatherDisplay:10.37,2013-06-04 12:58:00,
2013-06-04 08:03:00,55.3,46.8,30.07,ENE,59,0.9,5.0,73,0.00,OVC,,0.01,14.0,WeatherDisplay:10.37,2013-06-04 13:03:00,
2013-06-04 08:08:00,55.4,47.2,30.07,NNE,22,0.7,2.3,74,0.00,OVC,,0.01,12.0,WeatherDisplay:10.37,2013-06-04 13:08:00,
2013-06-04 08:13:00,55.4,46.9,30.07,NE,45,1.6,3.5,73,0.00,OVC,,0.01,12.0,WeatherDisplay:10.37,2013-06-04 13:13:00,
2013-06-04 08:18:00,55.3,47.2,30.07,North,355,3.2,5.0,74,0.00,OVC,,0.01,18.0,WeatherDisplay:10.37,2013-06-04 13:18:00,
2013-06-04 08:23:00,55.2,47.4,30.08,North,360,0.2,1.2,75,0.00,OVC,,0.01,23.0,WeatherDisplay:10.37,2013-06-04 13:23:00,
2013-06-04 08:28:00,55.0,47.2,30.08,NE,39,4.5,10.4,75,0.00,OVC,,0.01,21.0,WeatherDisplay:10.37,2013-06-04 13:28:00,
2013-06-04 08:33:00,54.7,47.3,30.08,ENE,69,4.3,7.0,76,0.00,OVC,,0.01,14.0,WeatherDisplay:10.37,2013-06-04 13:33:00,
2013-06-04 08:38:00,54.2,47.5,30.09,NNE,17,2.9,5.0,78,0.01,RA,,0.02,19.0,WeatherDisplay:10.37,2013-06-04 13:38:00,
2013-06-04 08:43:00,53.5,48.1,30.08,NE,35,4.0,6.0,82,0.03,RA,,0.04,42.0,WeatherDisplay:10.37,2013-06-04 13:43:00,
2013-06-04 08:48:00,52.7,48.0,30.09,NNE,26,2.1,5.8,84,0.04,RA,,0.06,46.0,WeatherDisplay:10.37,2013-06-04 13:48:00,
2013-06-04 08:53:00,52.2,48.4,30.09,NNE,24,3.3,6.0,87,0.06,RA,,0.07,37.0,WeatherDisplay:10.37,2013-06-04 13:53:00,
2013-06-04 08:58:00,52.0,48.9,30.09,North,5,1.7,3.5,89,0.07,RA,,0.08,44.0,WeatherDisplay:10.37,2013-06-04 13:58:00,
2013-06-04 09:03:00,51.7,48.9,30.10,NNE,24,1.9,4.6,90,0.07,RA,,0.08,39.0,WeatherDisplay:10.37,2013-06-04 14:03:00,
2013-06-04 09:08:00,51.6,48.8,30.10,North,9,5.8,9.2,90,0.08,RA,,0.09,35.0,WeatherDisplay:10.37,2013-06-04 14:08:00,
2013-06-04 09:13:00,51.4,48.9,30.10,NNE,32,3.7,7.0,91,0.09,RA,,0.10,25.0,WeatherDisplay:10.37,2013-06-04 14:13:00,
2013-06-04 09:18:00,51.3,49.1,30.11,NNW,346,3.0,6.0,92,0.09,RA,,0.10,19.0,WeatherDisplay:10.37,2013-06-04 14:18:00,
2013-06-04 09:23:00,51.3,49.1,30.11,NW,315,4.0,11.5,92,0.09,OVC,,0.10,14.0,WeatherDisplay:10.37,2013-06-04 14:23:00,
2013-06-04 09:28:00,51.0,48.8,30.12,North,5,5.5,9.0,92,0.09,OVC,,0.10,19.0,WeatherDisplay:10.37,2013-06-04 14:28:00,
2013-06-04 09:33:00,50.9,48.7,30.11,North,5,2.5,5.0,92,0.11,RA,,0.12,33.0,WeatherDisplay:10.37,2013-06-04 14:33:00,
2013-06-04 09:38:00,50.8,48.6,30.11,NNE,17,3.6,5.0,92,0.14,RA,,0.16,26.0,WeatherDisplay:10.37,2013-06-04 14:38:00,
2013-06-04 09:43:00,50.6,48.4,30.11,NE,49,2.6,6.9,92,0.15,RA,,0.19,26.0,WeatherDisplay:10.37,2013-06-04 14:43:00,
2013-06-04 09:48:00,50.6,48.4,30.11,NE,44,6.7,11.5,92,0.15,RA,,0.21,26.0,WeatherDisplay:10.37,2013-06-04 14:48:00,
2013-06-04 09:53:00,50.6,48.7,30.10,ENE,70,4.8,8.1,93,0.17,RA,,0.24,44.0,WeatherDisplay:10.37,2013-06-04 14:53:00,
2013-06-04 09:58:00,50.7,48.7,30.10,NNE,29,1.8,5.0,93,0.17,RA,,0.26,46.0,WeatherDisplay:10.37,2013-06-04 14:58:00,
2013-06-04 10:03:00,50.7,48.7,30.10,ENE,65,2.6,13.8,93,0.20,-RA,,0.28,54.0,WeatherDisplay:10.37,2013-06-04 15:03:00,
2013-06-04 10:08:00,50.8,49.1,30.10,SSE,157,2.7,5.0,94,0.21,-RA,,0.31,58.0,WeatherDisplay:10.37,2013-06-04 15:08:00,
2013-06-04 10:13:00,50.9,49.2,30.10,East,97,3.4,7.0,94,0.22,-RA,,0.33,62.0,WeatherDisplay:10.37,2013-06-04 15:13:00,
2013-06-04 10:18:00,51.1,49.4,30.09,East,99,1.8,3.5,94,0.24,-RA,,0.34,67.0,WeatherDisplay:10.37,2013-06-04 15:18:00,
2013-06-04 10:23:00,51.3,49.9,30.09,NE,38,2.4,6.0,95,0.26,-RA,,0.37,86.0,WeatherDisplay:10.37,2013-06-04 15:23:00,
2013-06-04 10:28:00,51.5,50.1,30.09,East,99,3.9,10.4,95,0.29,-RA,,0.39,113.0,WeatherDisplay:10.37,2013-06-04 15:28:00,
2013-06-04 10:33:00,51.7,50.3,30.08,ENE,74,3.4,11.5,95,0.28,-RA,,0.40,88.0,WeatherDisplay:10.37,2013-06-04 15:33:00,
2013-06-04 10:38:00,51.9,50.5,30.08,SSE,167,4.4,9.2,95,0.25,-RA,,0.41,67.0,WeatherDisplay:10.37,2013-06-04 15:38:00,
2013-06-04 10:43:00,52.0,50.6,30.08,East,80,2.7,5.0,95,0.22,-RA,,0.41,88.0,WeatherDisplay:10.37,2013-06-04 15:43:00,
2013-06-04 10:48:00,52.3,50.9,30.08,NW,325,3.5,7.0,95,0.22,-RA,,0.42,105.0,WeatherDisplay:10.37,2013-06-04 15:48:00,
2013-06-04 10:53:00,52.6,51.2,30.08,NE,38,2.2,7.0,95,0.19,-RA,,0.42,144.0,WeatherDisplay:10.37,2013-06-04 15:53:00,
2013-06-04 10:58:00,52.8,51.4,30.08,NE,56,4.6,10.0,95,0.17,-RA,,0.42,116.0,WeatherDisplay:10.37,2013-06-04 15:58:00,
2013-06-04 11:03:00,53.0,51.6,30.09,SSE,153,1.4,6.0,95,0.14,OVC,,0.42,128.0,WeatherDisplay:10.37,2013-06-04 16:03:00,
2013-06-04 11:08:00,53.2,51.8,30.09,East,96,2.8,12.7,95,0.12,OVC,,0.42,202.0,WeatherDisplay:10.37,2013-06-04 16:08:00,
2013-06-04 11:13:00,53.5,52.1,30.08,West,267,2.3,4.0,95,0.10,OVC,,0.42,283.0,WeatherDisplay:10.37,2013-06-04 16:13:00,
2013-06-04 11:18:00,53.9,52.5,30.08,NE,45,2.4,8.0,95,0.08,OVC,,0.42,274.0,WeatherDisplay:10.37,2013-06-04 16:18:00,
2013-06-04 11:23:00,54.2,52.5,30.08,North,9,1.1,5.0,94,0.06,OVC,,0.42,302.0,WeatherDisplay:10.37,2013-06-04 16:23:00,
2013-06-04 11:28:00,54.5,52.8,30.08,ESE,107,4.4,9.2,94,0.03,OVC,,0.42,285.0,WeatherDisplay:10.37,2013-06-04 16:28:00,
2013-06-04 11:33:00,54.8,53.1,30.08,ENE,61,3.4,9.0,94,0.02,OVC,,0.42,269.0,WeatherDisplay:10.37,2013-06-04 16:33:00,
2013-06-04 11:38:00,55.0,53.3,30.08,West,280,1.8,5.0,94,0.01,OVC,,0.42,239.0,WeatherDisplay:10.37,2013-06-04 16:38:00,
2013-06-04 11:43:00,55.0,53.3,30.08,South,178,3.1,5.8,94,0.01,OVC,,0.42,153.0,WeatherDisplay:10.37,2013-06-04 16:43:00,
2013-06-04 11:48:00,55.1,53.1,30.08,NNW,335,1.5,9.2,93,0.00,OVC,,0.42,171.0,WeatherDisplay:10.37,2013-06-04 16:48:00,
2013-06-04 11:53:00,55.2,53.5,30.08,SSE,167,1.4,4.0,94,0.00,OVC,,0.42,172.0,WeatherDisplay:10.37,2013-06-04 16:53:00,
2013-06-04 11:58:00,55.3,53.6,30.08,NNE,23,2.1,5.0,94,0.00,OVC,,0.42,186.0,WeatherDisplay:10.37,2013-06-04 16:58:00,
2013-06-04 12:03:00,55.3,53.6,30.07,ENE,64,2.3,6.0,94,0.00,OVC,,0.42,142.0,WeatherDisplay:10.37,2013-06-04 17:03:00,
2013-06-04 12:08:00,55.3,53.3,30.07,SSW,205,1.6,5.8,93,0.00,OVC,,0.42,125.0,WeatherDisplay:10.37,2013-06-04 17:08:00,
2013-06-04 12:13:00,55.4,53.7,30.07,SE,146,0.9,2.3,94,0.00,OVC,,0.42,120.0,WeatherDisplay:10.37,2013-06-04 17:13:00,
2013-06-04 12:18:00,55.5,53.8,30.07,ESE,121,3.1,7.0,94,0.00,OVC,,0.42,125.0,WeatherDisplay:10.37,2013-06-04 17:18:00,
2013-06-04 12:23:00,55.6,53.6,30.07,NNE,29,1.7,4.0,93,0.00,OVC,,0.42,135.0,WeatherDisplay:10.37,2013-06-04 17:23:00,
2013-06-04 12:28:00,55.8,53.8,30.07,SE,128,1.3,4.0,93,0.00,OVC,,0.42,77.0,WeatherDisplay:10.37,2013-06-04 17:28:00,
2013-06-04 12:33:00,55.8,53.8,30.07,ENE,68,0.4,3.5,93,0.00,OVC,,0.42,72.0,WeatherDisplay:10.37,2013-06-04 17:33:00,
2013-06-04 12:38:00,55.9,53.9,30.07,South,184,0.5,1.2,93,0.00,OVC,,0.42,54.0,WeatherDisplay:10.37,2013-06-04 17:38:00,
2013-06-04 12:43:00,55.9,53.9,30.07,East,90,1.9,3.0,93,0.00,OVC,,0.42,40.0,WeatherDisplay:10.37,2013-06-04 17:43:00,
2013-06-04 12:48:00,55.9,53.9,30.08,SSE,150,0.3,2.0,93,0.00,OVC,,0.42,28.0,WeatherDisplay:10.37,2013-06-04 17:48:00,
2013-06-04 12:53:00,55.9,53.9,30.08,NE,51,1.4,5.0,93,0.00,OVC,,0.42,35.0,WeatherDisplay:10.37,2013-06-04 17:53:00,
2013-06-04 12:58:00,56.1,54.1,30.08,SSW,200,2.4,7.0,93,0.00,OVC,,0.42,32.0,WeatherDisplay:10.37,2013-06-04 17:58:00,
2013-06-04 13:03:00,56.2,53.9,30.08,ENE,64,2.8,4.6,92,0.01,RA,,0.43,37.0,WeatherDisplay:10.37,2013-06-04 18:03:00,
2013-06-04 13:08:00,56.2,54.2,30.08,NNE,24,2.4,3.5,93,0.01,RA,,0.43,35.0,WeatherDisplay:10.37,2013-06-04 18:08:00,
2013-06-04 13:13:00,56.2,54.2,30.08,NE,49,0.4,3.5,93,0.01,OVC,,0.43,25.0,WeatherDisplay:10.37,2013-06-04 18:13:00,
2013-06-04 13:18:00,56.1,54.4,30.09,NE,34,2.1,3.5,94,0.02,RA,,0.44,26.0,WeatherDisplay:10.37,2013-06-04 18:18:00,
2013-06-04 13:23:00,56.2,54.5,30.09,NNE,32,0.5,2.3,94,0.05,RA,,0.48,26.0,WeatherDisplay:10.37,2013-06-04 18:23:00,
2013-06-04 13:28:00,56.1,54.4,30.09,NE,35,0.8,2.3,94,0.10,RA,,0.52,25.0,WeatherDisplay:10.37,2013-06-04 18:28:00,
2013-06-04 13:33:00,55.9,54.2,30.09,ENE,62,0.0,1.2,94,0.15,RA,,0.57,16.0,WeatherDisplay:10.37,2013-06-04 18:33:00,
2013-06-04 13:38:00,55.7,54.3,30.08,NE,55,0.2,1.2,95,0.22,RA,,0.65,18.0,WeatherDisplay:10.37,2013-06-04 18:38:00,
2013-06-04 13:43:00,55.7,54.6,30.09,ESE,102,0.0,1.2,96,0.25,RA,,0.68,12.0,WeatherDisplay:10.37,2013-06-04 18:43:00,
2013-06-04 13:48:00,55.6,54.5,30.08,SSE,166,1.7,4.0,96,0.30,RA,,0.72,19.0,WeatherDisplay:10.37,2013-06-04 18:48:00,
2013-06-04 13:53:00,55.6,54.5,30.07,South,185,1.8,4.0,96,0.33,RA,,0.76,63.0,WeatherDisplay:10.37,2013-06-04 18:53:00,
2013-06-04 13:58:00,55.7,54.9,30.07,NNE,26,1.7,3.5,97,0.38,RA,,0.81,91.0,WeatherDisplay:10.37,2013-06-04 18:58:00,
2013-06-04 14:03:00,55.8,55.0,30.07,SSW,211,1.6,3.5,97,0.43,RA,,0.86,111.0,WeatherDisplay:10.37,2013-06-04 19:03:00,
2013-06-04 14:08:00,56.0,55.2,30.07,South,190,1.7,4.0,97,0.47,RA,,0.90,135.0,WeatherDisplay:10.37,2013-06-04 19:08:00,
2013-06-04 14:13:00,56.1,55.3,30.06,NNE,26,4.9,8.1,97,0.50,RA,,0.93,137.0,WeatherDisplay:10.37,2013-06-04 19:13:00,
2013-06-04 14:18:00,56.2,55.4,30.06,South,173,3.2,7.0,97,0.51,RA,,0.95,77.0,WeatherDisplay:10.37,2013-06-04 19:18:00,
2013-06-04 14:23:00,56.2,55.4,30.07,South,171,3.6,6.0,97,0.50,RA,,0.98,49.0,WeatherDisplay:10.37,2013-06-04 19:23:00,
2013-06-04 14:28:00,56.2,55.4,30.07,South,190,0.7,4.6,97,0.47,RA,,0.99,58.0,WeatherDisplay:10.37,2013-06-04 19:28:00,
2013-06-04 14:33:00,56.2,55.4,30.07,SSE,168,2.6,6.0,97,0.47,RA,,1.05,62.0,WeatherDisplay:10.37,2013-06-04 19:33:00,
2013-06-04 14:38:00,56.3,55.5,30.07,SW,217,4.8,11.5,97,0.46,RA,,1.10,90.0,WeatherDisplay:10.37,2013-06-04 19:38:00,
2013-06-04 14:43:00,56.3,55.5,30.07,South,187,3.9,7.0,97,0.45,RA,,1.12,70.0,WeatherDisplay:10.37,2013-06-04 19:43:00,
2013-06-04 14:48:00,56.3,55.5,30.07,South,177,3.2,8.1,97,0.40,RA,,1.12,49.0,WeatherDisplay:10.37,2013-06-04 19:48:00,
2013-06-04 14:53:00,56.3,55.5,30.08,South,175,3.0,6.0,97,0.37,OVC,,1.12,60.0,WeatherDisplay:10.37,2013-06-04 19:53:00,
2013-06-04 14:58:00,56.4,55.6,30.08,SSE,163,1.5,5.8,97,0.33,RA,,1.13,91.0,WeatherDisplay:10.37,2013-06-04 19:58:00,
2013-06-04 15:03:00,56.5,55.7,30.07,SSE,164,2.3,4.0,97,0.27,RA,,1.13,77.0,WeatherDisplay:10.37,2013-06-04 20:03:00,
2013-06-04 15:08:00,56.6,55.8,30.07,South,186,3.6,7.0,97,0.23,OVC,,1.13,127.0,WeatherDisplay:10.37,2013-06-04 20:08:00,
2013-06-04 15:13:00,56.7,55.9,30.07,East,92,4.6,8.0,97,0.21,RA,,1.14,88.0,WeatherDisplay:10.37,2013-06-04 20:13:00,
2013-06-04 15:18:00,56.7,55.9,30.08,SSW,198,4.1,9.0,97,0.19,RA,,1.14,86.0,WeatherDisplay:10.37,2013-06-04 20:18:00,
2013-06-04 15:23:00,56.7,55.9,30.08,West,276,4.1,9.2,97,0.17,OVC,,1.14,62.0,WeatherDisplay:10.37,2013-06-04 20:23:00,
2013-06-04 15:28:00,56.7,55.9,30.08,South,171,2.8,6.9,97,0.15,OVC,,1.14,44.0,WeatherDisplay:10.37,2013-06-04 20:28:00,
2013-06-04 15:33:00,56.6,55.8,30.08,SSE,156,2.9,6.9,97,0.10,OVC,,1.14,53.0,WeatherDisplay:10.37,2013-06-04 20:33:00,
2013-06-04 15:38:00,56.7,55.9,30.08,SE,136,1.5,5.8,97,0.04,OVC,,1.14,54.0,WeatherDisplay:10.37,2013-06-04 20:38:00,
2013-06-04 15:43:00,56.6,55.8,30.07,SSE,165,3.4,7.0,97,0.03,RA,,1.15,44.0,WeatherDisplay:10.37,2013-06-04 20:43:00,
2013-06-04 15:48:00,56.6,55.8,30.08,SSE,153,2.6,5.0,97,0.03,RA,,1.15,21.0,WeatherDisplay:10.37,2013-06-04 20:48:00,
2013-06-04 15:53:00,56.4,55.6,30.08,SSW,199,1.8,5.8,97,0.03,OVC,,1.15,25.0,WeatherDisplay:10.37,2013-06-04 20:53:00,
2013-06-04 15:58:00,56.3,55.5,30.08,South,169,4.0,8.0,97,0.02,OVC,,1.15,25.0,WeatherDisplay:10.37,2013-06-04 20:58:00,
2013-06-04 16:03:00,56.2,55.4,30.08,South,178,4.5,7.0,97,0.03, +RA,,1.16,42.0,WeatherDisplay:10.37,2013-06-04 21:03:00,
2013-06-04 16:08:00,56.1,55.0,30.08,South,188,1.7,4.6,96,0.04, +RA,,1.17,53.0,WeatherDisplay:10.37,2013-06-04 21:08:00,
2013-06-04 16:13:00,56.1,55.3,30.08,South,174,3.7,6.0,97,0.05, +RA,,1.19,77.0,WeatherDisplay:10.37,2013-06-04 21:13:00,
2013-06-04 16:18:00,56.1,55.3,30.08,SW,215,1.9,8.1,97,0.07, +RA,,1.21,70.0,WeatherDisplay:10.37,2013-06-04 21:18:00,
2013-06-04 16:23:00,56.0,55.2,30.08,South,184,2.4,7.0,97,0.11, +RA,,1.25,51.0,WeatherDisplay:10.37,2013-06-04 21:23:00,
2013-06-04 16:28:00,56.0,55.2,30.08,WNW,292,0.8,2.3,97,0.12, +RA,,1.26,54.0,WeatherDisplay:10.37,2013-06-04 21:28:00,
2013-06-04 16:33:00,56.0,55.2,30.08,South,185,2.4,4.6,97,0.12, +RA,,1.26,47.0,WeatherDisplay:10.37,2013-06-04 21:33:00,
2013-06-04 16:38:00,56.0,55.2,30.08,SSE,153,2.9,8.0,97,0.12, +RA,,1.26,51.0,WeatherDisplay:10.37,2013-06-04 21:38:00,
2013-06-04 16:43:00,56.0,55.2,30.07,SSW,202,3.1,8.0,97,0.12, +RA,,1.27,51.0,WeatherDisplay:10.37,2013-06-04 21:43:00,
2013-06-04 16:48:00,55.9,55.1,30.07,SSW,202,6.2,9.2,97,0.12, +RA,,1.27,81.0,WeatherDisplay:10.37,2013-06-04 21:48:00,
2013-06-04 16:53:00,55.9,55.1,30.07,NE,47,4.6,9.2,97,0.12, +RA,,1.27,53.0,WeatherDisplay:10.37,2013-06-04 21:53:00,
2013-06-04 16:58:00,55.8,55.0,30.07,SSW,205,4.8,9.0,97,0.12, +RA,,1.27,39.0,WeatherDisplay:10.37,2013-06-04 21:58:00,
2013-06-04 17:03:00,55.8,55.0,30.08,South,187,3.9,6.0,97,0.11,OVC,,1.27,62.0,WeatherDisplay:10.37,2013-06-04 22:03:00,
2013-06-04 17:08:00,55.8,55.0,30.08,SE,136,2.6,6.9,97,0.10,OVC,,1.27,65.0,WeatherDisplay:10.37,2013-06-04 22:08:00,
2013-06-04 17:13:00,55.8,55.0,30.08,SSW,197,2.7,6.9,97,0.08,OVC,,1.27,58.0,WeatherDisplay:10.37,2013-06-04 22:13:00,
2013-06-04 17:18:00,55.7,54.9,30.08,South,179,3.0,8.1,97,0.06,OVC,,1.27,113.0,WeatherDisplay:10.37,2013-06-04 22:18:00,
2013-06-04 17:23:00,55.7,54.9,30.08,South,186,1.1,3.5,97,0.03,RA,,1.28,56.0,WeatherDisplay:10.37,2013-06-04 22:23:00,
2013-06-04 17:28:00,55.5,54.7,30.08,SSE,167,3.4,6.0,97,0.03,RA,,1.28,37.0,WeatherDisplay:10.37,2013-06-04 22:28:00,
2013-06-04 17:33:00,55.3,54.5,30.08,SSW,201,1.1,5.8,97,0.03,RA,,1.29,51.0,WeatherDisplay:10.37,2013-06-04 22:33:00,
2013-06-04 17:38:00,55.2,54.4,30.08,South,169,2.4,5.0,97,0.03,RA,,1.29,42.0,WeatherDisplay:10.37,2013-06-04 22:38:00,
2013-06-04 17:43:00,55.1,54.3,30.08,South,184,2.6,4.0,97,0.02,OVC,,1.29,44.0,WeatherDisplay:10.37,2013-06-04 22:43:00,
2013-06-04 17:48:00,55.0,54.2,30.08,SSE,154,2.8,6.0,97,0.02,OVC,,1.29,37.0,WeatherDisplay:10.37,2013-06-04 22:48:00,
2013-06-04 17:53:00,54.9,54.1,30.08,South,175,1.8,6.0,97,0.02,OVC,,1.29,30.0,WeatherDisplay:10.37,2013-06-04 22:53:00,
2013-06-04 17:58:00,54.9,54.1,30.08,SSW,200,1.9,4.0,97,0.02,OVC,,1.29,30.0,WeatherDisplay:10.37,2013-06-04 22:58:00,
2013-06-04 18:03:00,54.7,53.9,30.08,South,190,3.3,8.1,97,0.02,OVC,,1.29,25.0,WeatherDisplay:10.37,2013-06-04 23:03:00,
2013-06-04 18:08:00,54.7,53.9,30.08,East,88,1.4,3.5,97,0.02,OVC,,1.29,37.0,WeatherDisplay:10.37,2013-06-04 23:08:00,
2013-06-04 18:13:00,54.8,54.0,30.07,SSE,165,1.4,4.0,97,0.06,RA,,1.34,102.0,WeatherDisplay:10.37,2013-06-04 23:13:00,
2013-06-04 18:18:00,54.9,54.1,30.07,SSE,155,1.5,3.5,97,0.11,RA,,1.38,93.0,WeatherDisplay:10.37,2013-06-04 23:18:00,
2013-06-04 18:23:00,54.9,54.1,30.07,South,175,2.2,4.0,97,0.12,RA,,1.40,37.0,WeatherDisplay:10.37,2013-06-04 23:23:00,
2013-06-04 18:28:00,54.8,54.0,30.07,SSE,168,0.9,3.5,97,0.12,RA,,1.40,35.0,WeatherDisplay:10.37,2013-06-04 23:28:00,
2013-06-04 18:33:00,54.8,54.0,30.08,South,171,0.2,1.2,97,0.11,OVC,,1.40,42.0,WeatherDisplay:10.37,2013-06-04 23:33:00,
2013-06-04 18:38:00,54.7,53.9,30.08,NE,53,3.1,5.0,97,0.11,OVC,,1.40,44.0,WeatherDisplay:10.37,2013-06-04 23:38:00,
2013-06-04 18:43:00,54.7,53.9,30.08,SSW,205,1.2,4.0,97,0.11,OVC,,1.40,33.0,WeatherDisplay:10.37,2013-06-04 23:43:00,
2013-06-04 18:48:00,54.7,53.9,30.08,East,86,1.0,3.5,97,0.11,OVC,,1.40,23.0,WeatherDisplay:10.37,2013-06-04 23:48:00,
2013-06-04 18:53:00,54.7,53.9,30.08,ESE,109,0.0,1.2,97,0.11,OVC,,1.40,19.0,WeatherDisplay:10.37,2013-06-04 23:53:00,
2013-06-04 18:58:00,54.7,53.9,30.08,SSE,161,1.4,3.5,97,0.11,OVC,,1.40,39.0,WeatherDisplay:10.37,2013-06-04 23:58:00,
2013-06-04 19:03:00,54.7,53.9,30.08,SSW,201,0.4,5.8,97,0.11,-RA,,1.40,56.0,WeatherDisplay:10.37,2013-06-05 00:03:00,
2013-06-04 19:08:00,54.8,54.0,30.08,South,176,1.1,5.8,97,0.11,-RA,,1.40,42.0,WeatherDisplay:10.37,2013-06-05 00:08:00,
2013-06-04 19:13:00,54.9,54.1,30.08,South,188,0.3,2.3,97,0.07,-RA,,1.40,37.0,WeatherDisplay:10.37,2013-06-05 00:13:00,
2013-06-04 19:18:00,54.9,54.1,30.08,SSE,165,1.0,3.5,97,0.02,-RA,,1.40,69.0,WeatherDisplay:10.37,2013-06-05 00:18:00,
2013-06-04 19:23:00,54.9,54.1,30.08,SSE,155,1.4,3.0,97,0.00,-RA,,1.40,72.0,WeatherDisplay:10.37,2013-06-05 00:23:00,
2013-06-04 19:28:00,54.9,54.1,30.08,South,184,4.5,6.0,97,0.00,-RA,,1.40,84.0,WeatherDisplay:10.37,2013-06-05 00:28:00,
2013-06-04 19:33:00,55.0,54.2,30.08,SE,129,0.4,2.3,97,0.00,-RA,,1.40,91.0,WeatherDisplay:10.37,2013-06-05 00:33:00,
2013-06-04 19:38:00,55.0,54.2,30.08,East,97,2.7,5.0,97,0.00,-RA,,1.40,51.0,WeatherDisplay:10.37,2013-06-05 00:38:00,
2013-06-04 19:43:00,55.0,54.2,30.08,East,99,1.0,3.5,97,0.00,-RA,,1.40,25.0,WeatherDisplay:10.37,2013-06-05 00:43:00,
2013-06-04 19:48:00,54.9,53.8,30.08,SSE,167,2.7,5.0,96,0.00,-RA,,1.40,21.0,WeatherDisplay:10.37,2013-06-05 00:48:00,
2013-06-04 19:53:00,54.7,53.6,30.08,SSW,209,2.1,4.0,96,0.00,-RA,,1.40,12.0,WeatherDisplay:10.37,2013-06-05 00:53:00,
2013-06-04 19:58:00,54.6,53.5,30.08,East,101,1.2,3.5,96,0.00,-RA,,1.40,5.0,WeatherDisplay:10.37,2013-06-05 00:58:00,
2013-06-04 20:03:00,54.2,53.1,30.08,NE,46,2.4,5.0,96,0.00,OVC,,1.40,5.0,WeatherDisplay:10.37,2013-06-05 01:03:00,
2013-06-04 20:08:00,54.1,53.0,30.08,SSW,213,2.2,5.0,96,0.00,OVC,,1.40,5.0,WeatherDisplay:10.37,2013-06-05 01:08:00,
2013-06-04 20:13:00,54.0,52.9,30.08,South,173,2.7,7.0,96,0.00,OVC,,1.40,5.0,WeatherDisplay:10.37,2013-06-05 01:13:00,
2013-06-04 20:18:00,53.9,52.8,30.08,NNW,348,1.3,4.0,96,0.00,OVC,,1.40,5.0,WeatherDisplay:10.37,2013-06-05 01:18:00,
2013-06-04 20:23:00,53.9,52.8,30.08,South,190,0.6,3.0,96,0.00,OVC,,1.40,0.0,WeatherDisplay:10.37,2013-06-05 01:23:00,
2013-06-04 20:28:00,53.9,52.8,30.08,SSE,155,0.1,3.5,96,0.00,OVC,,1.40,0.0,WeatherDisplay:10.37,2013-06-05 01:28:00,
2013-06-04 20:33:00,53.9,52.8,30.08,SE,132,2.5,6.0,96,0.00,OVC,,1.40,0.0,WeatherDisplay:10.37,2013-06-05 01:33:00,
2013-06-04 20:38:00,53.8,52.7,30.08,SSW,192,0.4,2.3,96,0.00,OVC,,1.40,0.0,WeatherDisplay:10.37,2013-06-05 01:38:00,
2013-06-04 20:43:00,53.8,52.7,30.08,SSW,206,1.6,4.0,96,0.00,OVC,,1.40,0.0,WeatherDisplay:10.37,2013-06-05 01:43:00,
2013-06-04 20:48:00,53.8,52.7,30.09,North,355,0.9,3.5,96,0.00,OVC,,1.40,0.0,WeatherDisplay:10.37,2013-06-05 01:48:00,
2013-06-04 20:53:00,53.8,53.0,30.08,SE,137,0.6,1.2,97,0.00,OVC,,1.40,0.0,WeatherDisplay:10.37,2013-06-05 01:53:00,
2013-06-04 20:58:00,53.8,53.0,30.09,South,180,1.3,5.8,97,0.00,OVC,,1.40,0.0,WeatherDisplay:10.37,2013-06-05 01:58:00,
2013-06-04 21:03:00,53.8,53.0,30.08,South,180,2.6,6.0,97,0.00,-RA,,1.40,0.0,WeatherDisplay:10.37,2013-06-05 02:03:00,
2013-06-04 21:08:00,53.8,53.0,30.08,SE,126,1.4,4.0,97,0.00,-RA,,1.40,0.0,WeatherDisplay:10.37,2013-06-05 02:08:00,
2013-06-04 21:13:00,53.8,53.0,30.08,SSW,194,2.2,5.0,97,0.00,-RA,,1.40,0.0,WeatherDisplay:10.37,2013-06-05 02:13:00,
2013-06-04 21:18:00,53.9,53.1,30.08,South,170,1.5,5.8,97,0.00,-RA,,1.40,0.0,WeatherDisplay:10.37,2013-06-05 02:18:00,
2013-06-04 21:23:00,54.0,53.2,30.08,SSW,205,1.3,5.0,97,0.00,-RA,,1.40,0.0,WeatherDisplay:10.37,2013-06-05 02:23:00,
2013-06-04 21:28:00,54.0,53.2,30.09,South,172,1.3,4.0,97,0.00,-RA,,1.40,0.0,WeatherDisplay:10.37,2013-06-05 02:28:00,
2013-06-04 21:33:00,54.1,53.3,30.08,SSW,202,0.7,2.3,97,0.00,-RA,,1.40,0.0,WeatherDisplay:10.37,2013-06-05 02:33:00,
2013-06-04 21:38:00,54.1,53.3,30.09,SSE,164,2.7,4.6,97,0.00,-RA,,1.40,0.0,WeatherDisplay:10.37,2013-06-05 02:38:00,
2013-06-04 21:43:00,54.1,53.3,30.08,SSE,155,2.9,5.8,97,0.00,-RA,,1.40,0.0,WeatherDisplay:10.37,2013-06-05 02:43:00,
2013-06-04 21:48:00,54.1,53.3,30.09,SSE,168,1.5,4.0,97,0.00,-RA,,1.40,0.0,WeatherDisplay:10.37,2013-06-05 02:48:00,
2013-06-04 21:53:00,54.1,53.3,30.09,SE,134,3.0,9.0,97,0.00,-RA,,1.40,0.0,WeatherDisplay:10.37,2013-06-05 02:53:00,
2013-06-04 21:58:00,54.1,53.3,30.09,South,176,4.5,9.2,97,0.00,-RA,,1.40,0.0,WeatherDisplay:10.37,2013-06-05 02:58:00,
2013-06-04 22:03:00,54.1,53.3,30.09,SSE,165,2.0,4.0,97,0.00,OVC,,1.40,0.0,WeatherDisplay:10.37,2013-06-05 03:03:00,
2013-06-04 22:08:00,54.1,53.3,30.08,SSW,193,2.4,4.0,97,0.00,OVC,,1.40,0.0,WeatherDisplay:10.37,2013-06-05 03:08:00,
2013-06-04 22:13:00,54.1,54.1,30.08,SSE,160,1.5,4.0,100,0.00,OVC,,1.40,0.0,WeatherDisplay:10.37,2013-06-05 03:13:00,
2013-06-04 22:18:00,54.1,54.1,30.08,SSE,168,1.1,4.6,100,0.00,OVC,,1.40,0.0,WeatherDisplay:10.37,2013-06-05 03:18:00,
2013-06-04 22:23:00,54.1,54.1,30.09,East,80,3.5,6.0,100,0.00,OVC,,1.40,0.0,WeatherDisplay:10.37,2013-06-05 03:23:00,
2013-06-04 22:28:00,54.1,54.1,30.09,SSW,197,2.9,9.2,100,0.00,OVC,,1.40,0.0,WeatherDisplay:10.37,2013-06-05 03:28:00,
2013-06-04 22:33:00,54.1,54.1,30.09,South,170,1.6,4.6,100,0.00,OVC,,1.40,0.0,WeatherDisplay:10.37,2013-06-05 03:33:00,
2013-06-04 22:38:00,54.1,54.1,30.09,SSE,163,3.4,6.0,100,0.00,OVC,,1.40,0.0,WeatherDisplay:10.37,2013-06-05 03:38:00,
2013-06-04 22:43:00,54.1,54.1,30.08,South,172,1.1,2.3,100,0.00,OVC,,1.40,0.0,WeatherDisplay:10.37,2013-06-05 03:43:00,
2013-06-04 22:48:00,54.1,54.1,30.08,ESE,107,2.5,5.0,100,0.00,OVC,,1.40,0.0,WeatherDisplay:10.37,2013-06-05 03:48:00,
2013-06-04 22:53:00,54.1,54.1,30.08,ESE,115,2.8,6.0,100,0.00,OVC,,1.40,0.0,WeatherDisplay:10.37,2013-06-05 03:53:00,
2013-06-04 22:58:00,54.0,54.0,30.08,South,169,1.8,4.0,100,0.00,OVC,,1.40,0.0,WeatherDisplay:10.37,2013-06-05 03:58:00,
2013-06-04 23:01:00,54.0,54.0,30.08,South,177,2.2,4.0,100,0.00,OVC,,1.40,0.0,WeatherDisplay:10.37,2013-06-05 04:01:00,
2013-06-04 23:02:00,54.0,54.0,30.08,South,177,0.3,2.3,100,0.00,OVC,,1.40,0.0,WeatherDisplay:10.37,2013-06-05 04:02:00,
2013-06-04 23:03:00,54.0,54.0,30.08,South,175,1.8,6.0,100,0.00,OVC,,1.40,0.0,WeatherDisplay:10.37,2013-06-05 04:03:00,
2013-06-04 23:05:00,54.0,54.0,30.08,SSE,153,1.2,5.8,100,0.00,OVC,,1.40,0.0,WeatherDisplay:10.37,2013-06-05 04:05:00,
2013-06-04 23:10:00,53.9,53.1,30.08,SSE,161,3.0,7.0,97,0.00,OVC,OVC,1.40,0.0,WeatherDisplay:10.37,2013-06-05 04:10:00,
2013-06-04 23:13:00,53.9,53.1,30.08,SSE,163,1.9,4.6,97,0.00,OVC,,1.40,0.0,WeatherDisplay:10.37,2013-06-05 04:13:00,
2013-06-04 23:18:00,53.9,53.1,30.08,SSE,168,2.3,4.6,97,0.00,OVC,,1.40,0.0,WeatherDisplay:10.37,2013-06-05 04:18:00,
2013-06-04 23:23:00,53.9,53.1,30.08,South,173,3.8,7.0,97,0.00,OVC,,1.40,0.0,WeatherDisplay:10.37,2013-06-05 04:23:00,
2013-06-04 23:28:00,53.9,53.1,30.08,South,179,5.2,7.0,97,0.00,OVC,,1.40,0.0,WeatherDisplay:10.37,2013-06-05 04:28:00,
2013-06-04 23:33:00,53.8,53.0,30.07,SSE,167,3.0,7.0,97,0.00,OVC,,1.40,0.0,WeatherDisplay:10.37,2013-06-05 04:33:00,
2013-06-04 23:38:00,53.7,52.9,30.07,ESE,111,6.0,10.4,97,0.00,OVC,,1.40,0.0,WeatherDisplay:10.37,2013-06-05 04:38:00,
2013-06-04 23:43:00,53.7,52.9,30.08,South,169,2.3,4.0,97,0.00,OVC,,1.40,0.0,WeatherDisplay:10.37,2013-06-05 04:43:00,
2013-06-04 23:48:00,53.6,52.8,30.08,SSE,167,2.8,4.6,97,0.00,OVC,,1.40,0.0,WeatherDisplay:10.37,2013-06-05 04:48:00,
2013-06-04 23:53:00,53.6,52.8,30.08,SSE,157,3.9,7.0,97,0.01,RA,,1.41,0.0,WeatherDisplay:10.37,2013-06-05 04:53:00,
2013-06-04 23:58:00,53.5,52.7,30.08,South,188,2.7,5.0,97,0.01,RA,,1.41,0.0,WeatherDisplay:10.37,2013-06-05 04:58:00,